Time,TemperatureF,DewpointF,PressureIn,WindDirection,WindDirectionDegrees,WindSpeedMPH,WindSpeedGustMPH,Humidity,HourlyPrecipIn,Conditions,Clouds,dailyrainin,SolarRadiationWatts/m^2,SoftwareType,DateUTC
2013-08-27 00:21:00,79.0,36.0,30.08,East,84,5.0,9.0,21,0.00,,,0.00,0.000000,,2013-08-27 07:21:00,
2013-08-27 00:32:00,79.0,36.0,30.08,East,84,5.0,9.0,21,0.00,,,0.00,0.000000,,2013-08-27 07:32:00,
2013-08-27 01:22:00,77.0,44.0,30.07,East,90,6.0,7.0,31,-99.99,,,0.00,0.000000,,2013-08-27 08:22:00,
2013-08-27 01:33:00,77.0,44.0,30.07,East,90,6.0,7.0,31,-99.99,,,0.00,0.000000,,2013-08-27 08:33:00,
2013-08-27 01:42:00,77.0,44.0,30.07,East,90,6.0,7.0,31,-99.99,,,0.00,0.000000,,2013-08-27 08:42:00,
2013-08-27 01:52:00,77.0,44.0,30.07,East,90,6.0,7.0,31,-99.99,,,0.00,0.000000,,2013-08-27 08:52:00,
2013-08-27 02:21:00,77.0,51.0,30.05,North,1,1.0,6.0,40,0.00,,,0.00,0.000000,,2013-08-27 09:21:00,
2013-08-27 02:35:00,77.0,51.0,30.05,North,1,1.0,6.0,40,0.00,,,0.00,0.000000,,2013-08-27 09:35:00,
2013-08-27 03:25:00,79.0,52.0,30.04,NE,37,5.0,7.0,39,0.00,,,0.00,0.000000,,2013-08-27 10:25:00,
2013-08-27 03:33:00,79.0,52.0,30.04,NE,37,5.0,7.0,39,0.00,,,0.00,0.000000,,2013-08-27 10:33:00,
2013-08-27 04:22:00,79.0,53.0,30.04,NNE,31,4.0,5.0,40,-99.99,,,0.00,0.000000,,2013-08-27 11:22:00,
2013-08-27 04:33:00,79.0,53.0,30.04,NNE,31,4.0,5.0,40,-99.99,,,0.00,0.000000,,2013-08-27 11:33:00,
2013-08-27 05:21:00,78.0,52.0,30.02,ENE,57,6.0,66.0,40,-99.99,,,0.00,0.000000,,2013-08-27 12:21:00,
2013-08-27 05:32:00,78.0,52.0,30.02,ENE,57,6.0,66.0,40,-99.99,,,0.00,0.000000,,2013-08-27 12:32:00,
2013-08-27 06:22:00,79.0,53.0,30.03,NE,49,5.0,8.0,40,-99.99,,,0.00,0.000000,,2013-08-27 13:22:00,
2013-08-27 06:32:00,79.0,53.0,30.03,NE,49,5.0,8.0,40,-99.99,,,0.00,0.000000,,2013-08-27 13:32:00,
2013-08-27 07:22:00,79.0,52.0,30.04,NNE,18,4.0,8.0,39,-99.99,,,0.00,0.000000,,2013-08-27 14:22:00,
2013-08-27 07:32:00,79.0,52.0,30.04,NNE,18,4.0,8.0,39,-99.99,,,0.00,0.000000,,2013-08-27 14:32:00,
2013-08-27 07:57:00,79.0,53.0,30.05,West,279,2.0,6.0,41,-99.99,,,0.00,1.000000,,2013-08-27 14:57:00,
2013-08-27 08:22:00,79.0,53.0,30.05,West,279,2.0,6.0,41,-99.99,,,0.00,1.000000,,2013-08-27 15:22:00,
2013-08-27 08:35:00,79.0,53.0,30.05,West,279,2.0,6.0,41,-99.99,,,0.00,1.000000,,2013-08-27 15:35:00,
2013-08-27 10:23:00,82.0,56.0,30.07,South,176,7.0,10.0,41,-99.99,,,0.00,166.000000,,2013-08-27 17:23:00,
2013-08-27 10:35:00,82.0,56.0,30.07,South,176,7.0,10.0,41,-99.99,,,0.00,166.000000,,2013-08-27 17:35:00,
2013-08-27 10:43:00,82.0,56.0,30.07,South,176,7.0,10.0,41,-99.99,,,0.00,166.000000,,2013-08-27 17:43:00,
2013-08-27 10:52:00,82.0,56.0,30.07,South,176,7.0,10.0,41,-99.99,,,0.00,166.000000,,2013-08-27 17:52:00,
2013-08-27 11:42:00,90.0,58.0,30.08,NNW,339,4.0,9.0,34,0.00,,,0.00,455.000000,,2013-08-27 18:42:00,
2013-08-27 11:52:00,90.0,58.0,30.08,NNW,339,4.0,9.0,34,0.00,,,0.00,455.000000,,2013-08-27 18:52:00,
2013-08-27 12:22:00,91.0,57.0,30.07,West,280,7.0,13.0,32,0.00,,,0.00,717.000000,,2013-08-27 19:22:00,
2013-08-27 12:32:00,91.0,57.0,30.07,West,280,7.0,13.0,32,0.00,,,0.00,717.000000,,2013-08-27 19:32:00,
2013-08-27 12:42:00,91.0,57.0,30.07,West,280,7.0,13.0,32,0.00,,,0.00,717.000000,,2013-08-27 19:42:00,
2013-08-27 12:52:00,91.0,57.0,30.07,West,280,7.0,13.0,32,0.00,,,0.00,717.000000,,2013-08-27 19:52:00,